Location: Spring Creek
(38.2870°N, 100.2160°W)
Time: 23:50:33
(UTC+00:00)

Cosmos 1140 Rocket - Pass Details

Date: 08 May 2021
Orbit: 744 x 768 km, 74.1° (Epoch: 21 June)

Event Time Altitude Azimuth Distance (km) Brightness Sun altitude
Rises 09:53:46 0° 346° (NNW) 3,220 7.1 -17.9°
Reaches altitude 10° 09:56:12 10° 351° (N) 2,295 6.4 -17.6°
Maximum altitude 10:01:18 55° 69° (ENE) 916 4.2 -16.8°
Drops below altitude 10° 10:06:24 10° 147° (SSE) 2,294 5.9 -16.0°
Sets 10:08:49 0° 151° (SSE) 3,218 6.6 -15.6°
